Location: Breckenridge
(39.4820°N, 106.0380°W)
Time: 14:01:54
(UTC-06:00)

Hubble Space Telescope - Visible Passes

Search period start: 18 March 2019 00:00
Search period end: 28 March 2019 00:00
Orbit: 537 x 540 km, 28.5° (Epoch: 17 March)

Date Brightness Start Highest point End Pass type
(mag) Time Alt. Az. Time Alt. Az. Time Alt. Az.
24 Mar 3.0 20:37:43 10° S 20:38:49 11° SSE 20:38:49 11° SSE visible
25 Mar 2.9 20:26:27 10° SSW 20:28:15 13° SSE 20:29:10 12° SSE visible
26 Mar 2.9 20:15:27 10° SSW 20:17:39 14° SSE 20:19:27 11° SE visible
27 Mar 2.8 20:04:35 10° SSW 20:07:02 15° S 20:09:29 10° SE visible
27 Mar 3.5 21:44:51 10° SW 21:45:02 11° SW 21:45:02 11° SW visible
